Change the Weather History Date:

Wednesday, June 4, 2014

  Actual Average (KAPN) Record (KAPN)
Temperature  
Mean Temperature 59 °F 59 °F  
Max Temperature 68 °F 71 °F 93 °F (1934)
Min Temperature 50 °F 46 °F 27 °F (1947)
Degree Days  
Heating Degree Days 6 7  
Month to date heating degree days 31  
Since 1 June heating degree days 31  
Since 1 July heating degree days 7988  
Cooling Degree Days 0 1  
Month to date cooling degree days 4  
Year to date cooling degree days 17  
Since 1 June cooling degree days 4  
Growing Degree Days 9 (Base 50)    
Moisture  
Dew Point 45 °F    
Average Humidity 62    
Maximum Humidity 89    
Minimum Humidity 40    
Precipitation  
Precipitation 0.00 in 0.09 in 1.05 in (1927)
Month to date precipitation 0.35  
Year to date precipitation 10.25  
Sea Level Pressure  
Sea Level Pressure 29.89 in    
Wind  
Wind Speed 9 mph (WNW)    
Max Wind Speed 16 mph    
Max Gust Speed 26 mph    
Visibility 10 miles    
Events      
T = Trace of Precipitation, MM = Missing Value Source: NWS Daily Summary

Daily Weather History Graph

Daily Weather History Graph

Search for Another Location

Airport or City:

Trip Planner

Search our weather history database for the weather conditions in past years. The results will help you decide how hot, cold, wet, or windy it might be!

Date:

Astronomy

Jun. 04, 2014 Rise Set
Actual Time 5:48 AM EDT 9:18 PM EDT
Civil Twilight 5:11 AM EDT 9:55 PM EDT
Nautical Twilight 4:22 AM EDT 10:45 PM EDT
Astronomical Twilight 3:19 AM EDT 11:48 PM EDT
Moon 12:20 PM EDT (6/4) 1:04 AM EDT (6/4)
Length of Visible Light 16h 44m
Length of Day
15h 30m
Waxing Crescent, 39% of the Moon is Illuminated
Jun 4
Waxing Crescent
Jun 5
First Quarter
Jun 13
Full
Jun 19
Last Quarter
Jun 27
New

Hourly Weather History & Observations

Time (EDT) Temp. Dew Point Humidity Pressure Visibility Wind Dir Wind Speed Gust Speed Precip Events Conditions
12:14 AM 56.1 °F 48.4 °F 75% 29.89 in 10.0 mi WNW 12.7 mph 21.9 mph N/A   Clear
12:35 AM 54.5 °F 47.7 °F 78% 29.88 in 10.0 mi West 4.6 mph - N/A   Clear
1:14 AM 52.0 °F 47.1 °F 83% 29.89 in 10.0 mi WSW 4.6 mph - N/A   Clear
1:35 AM 50.9 °F 47.1 °F 87% 29.88 in 10.0 mi WSW 5.8 mph - N/A   Clear
1:54 AM 51.1 °F 47.1 °F 86% 29.89 in 10.0 mi SW 6.9 mph - N/A   Clear
2:15 AM 51.3 °F 47.1 °F 86% 29.89 in 10.0 mi WSW 8.1 mph - N/A   Clear
2:34 AM 50.9 °F 46.9 °F 86% 29.88 in 10.0 mi SW 8.1 mph - N/A   Clear
2:55 AM 50.7 °F 46.9 °F 87% 29.88 in 10.0 mi SW 6.9 mph - N/A   Clear
3:15 AM 50.5 °F 47.1 °F 88% 29.88 in 10.0 mi SW 8.1 mph - N/A   Clear
3:34 AM 50.9 °F 47.3 °F 87% 29.87 in 10.0 mi SW 9.2 mph - N/A   Clear
3:55 AM 50.2 °F 46.9 °F 89% 29.87 in 10.0 mi SW 8.1 mph - N/A   Clear
4:15 AM 50.9 °F 46.6 °F 85% 29.87 in 10.0 mi SW 9.2 mph - N/A   Clear
4:35 AM 50.4 °F 46.0 °F 85% 29.87 in 10.0 mi SW 8.1 mph - N/A   Clear
4:55 AM 50.4 °F 45.5 °F 83% 29.86 in 10.0 mi SW 8.1 mph - N/A   Clear
5:14 AM 50.5 °F 45.0 °F 81% 29.87 in 10.0 mi SSW 8.1 mph - N/A   Clear
5:35 AM 50.5 °F 44.8 °F 81% 29.87 in 10.0 mi SW 8.1 mph - N/A   Clear
5:55 AM 50.4 °F 44.8 °F 81% 29.88 in 10.0 mi SW 9.2 mph - N/A   Clear
6:14 AM 50.5 °F 44.6 °F 80% 29.88 in 10.0 mi WSW 8.1 mph - N/A   Clear
6:35 AM 51.6 °F 44.6 °F 77% 29.89 in 10.0 mi WSW 6.9 mph - N/A   Clear
6:55 AM 54.7 °F 44.6 °F 69% 29.89 in 10.0 mi West 5.8 mph - N/A   Clear
7:15 AM 56.3 °F 44.6 °F 65% 29.90 in 10.0 mi West 5.8 mph - N/A   Clear
7:35 AM 57.7 °F 44.8 °F 62% 29.90 in 10.0 mi NW 10.4 mph - N/A   Clear
7:54 AM 58.1 °F 45.5 °F 63% 29.90 in 10.0 mi WNW 9.2 mph - N/A   Clear
8:15 AM 59.0 °F 45.7 °F 61% 29.90 in 10.0 mi WNW 12.7 mph 19.6 mph N/A   Clear
8:35 AM 59.4 °F 46.6 °F 63% 29.90 in 10.0 mi WNW 10.4 mph 17.3 mph N/A   Clear
8:54 AM 59.2 °F 46.8 °F 63% 29.91 in 10.0 mi WNW 9.2 mph 18.4 mph N/A   Clear
9:15 AM 60.1 °F 47.3 °F 63% 29.91 in 10.0 mi WNW 11.5 mph 16.1 mph N/A   Clear
9:34 AM 61.3 °F 47.8 °F 61% 29.91 in 10.0 mi WNW 11.5 mph - N/A   Clear
9:55 AM 62.8 °F 47.5 °F 57% 29.91 in 10.0 mi NW 8.1 mph 16.1 mph N/A   Clear
10:15 AM 63.1 °F 46.6 °F 55% 29.91 in 10.0 mi NNW 11.5 mph 17.3 mph N/A   Clear
10:34 AM 63.3 °F 47.1 °F 56% 29.91 in 10.0 mi NNW 8.1 mph 16.1 mph N/A   Clear
10:55 AM 64.0 °F 46.9 °F 54% 29.91 in 10.0 mi NNW 11.5 mph - N/A   Clear
11:15 AM 64.8 °F 45.3 °F 49% 29.91 in 10.0 mi NW 9.2 mph 18.4 mph N/A   Clear
11:34 AM 64.6 °F 45.1 °F 49% 29.91 in 10.0 mi NW 9.2 mph 18.4 mph N/A   Clear
11:55 AM 64.4 °F 45.3 °F 50% 29.91 in 10.0 mi NNW 11.5 mph 18.4 mph N/A   Clear
12:15 PM 64.9 °F 45.3 °F 49% 29.91 in 10.0 mi NW 12.7 mph 17.3 mph N/A   Clear
12:35 PM 66.6 °F 45.9 °F 47% 29.91 in 10.0 mi NW 11.5 mph 18.4 mph N/A   Clear
12:55 PM 66.9 °F 44.6 °F 45% 29.90 in 10.0 mi NW 15.0 mph 21.9 mph N/A   Clear
1:14 PM 66.4 °F 44.2 °F 45% 29.90 in 10.0 mi NW 15.0 mph 20.7 mph N/A   Clear
1:35 PM 66.7 °F 45.3 °F 46% 29.90 in 10.0 mi NNW 10.4 mph 26.5 mph N/A   Clear
1:55 PM 67.3 °F 44.2 °F 43% 29.89 in 10.0 mi WNW 12.7 mph 20.7 mph N/A   Clear
2:14 PM 68.0 °F 44.8 °F 43% 29.88 in 10.0 mi NW 9.2 mph 19.6 mph N/A   Clear
2:35 PM 67.6 °F 44.8 °F 44% 29.88 in 10.0 mi WNW 12.7 mph 23.0 mph N/A   Clear
2:55 PM 68.0 °F 43.5 °F 41% 29.88 in 10.0 mi WNW 16.1 mph 25.3 mph N/A   Clear
3:14 PM 68.9 °F 44.8 °F 42% 29.88 in 10.0 mi NW 11.5 mph 19.6 mph N/A   Clear
3:35 PM 68.5 °F 43.5 °F 40% 29.88 in 10.0 mi NNW 13.8 mph 20.7 mph N/A   Clear
3:54 PM 68.0 °F 43.5 °F 41% 29.87 in 10.0 mi NNW 12.7 mph 20.7 mph N/A   Clear
4:15 PM 67.5 °F 44.6 °F 44% 29.87 in 10.0 mi NNW 12.7 mph 16.1 mph N/A   Clear
4:35 PM 66.9 °F 45.3 °F 46% 29.87 in 10.0 mi NNW 11.5 mph 19.6 mph N/A   Clear
4:54 PM 67.3 °F 44.8 °F 44% 29.87 in 10.0 mi NNW 11.5 mph 20.7 mph N/A   Clear
5:15 PM 66.2 °F 44.2 °F 45% 29.87 in 10.0 mi NNW 12.7 mph 20.7 mph N/A   Clear
5:35 PM 65.1 °F 44.8 °F 48% 29.87 in 10.0 mi NNW 13.8 mph 20.7 mph N/A   Clear
5:54 PM 65.1 °F 44.6 °F 47% 29.88 in 10.0 mi NNW 12.7 mph 19.6 mph N/A   Clear
6:15 PM 64.4 °F 44.8 °F 49% 29.88 in 10.0 mi NW 9.2 mph 18.4 mph N/A   Clear
6:34 PM 63.9 °F 45.1 °F 51% 29.88 in 10.0 mi NNW 9.2 mph 18.4 mph N/A   Clear
6:55 PM 60.6 °F 45.1 °F 57% 29.88 in 10.0 mi NNW 13.8 mph 19.6 mph N/A   Clear
7:15 PM 60.1 °F 44.2 °F 56% 29.88 in 10.0 mi NNW 11.5 mph 18.4 mph N/A   Clear
7:34 PM 60.4 °F 43.7 °F 54% 29.89 in 10.0 mi NNW 11.5 mph - N/A   Clear
7:55 PM 59.0 °F 42.1 °F 53% 29.89 in 10.0 mi NW 11.5 mph 17.3 mph N/A   Clear
8:15 PM 58.3 °F 41.4 °F 53% 29.90 in 10.0 mi NNW 11.5 mph 21.9 mph N/A   Mostly Cloudy
8:34 PM 55.4 °F 41.2 °F 59% 29.90 in 10.0 mi NNW 9.2 mph 19.6 mph N/A   Overcast
8:55 PM 54.3 °F 41.9 °F 63% 29.90 in 10.0 mi NW 10.4 mph - N/A   Overcast
9:14 PM 54.0 °F 42.1 °F 64% 29.90 in 10.0 mi NNW 10.4 mph 18.4 mph N/A   Overcast
9:35 PM 53.1 °F 42.8 °F 68% 29.91 in 10.0 mi NW 10.4 mph - N/A   Overcast
9:55 PM 53.8 °F 43.0 °F 67% 29.91 in 10.0 mi NW 10.4 mph 16.1 mph N/A   Overcast
10:14 PM 53.8 °F 43.0 °F 67% 29.92 in 10.0 mi NNW 8.1 mph - N/A   Overcast
10:35 PM 53.6 °F 42.8 °F 67% 29.92 in 10.0 mi NNW 5.8 mph - N/A   Overcast
11:14 PM 53.6 °F 43.2 °F 68% 29.92 in 10.0 mi NW 9.2 mph - N/A   Overcast
11:35 PM 54.5 °F 43.2 °F 66% 29.92 in 10.0 mi NW 5.8 mph - N/A   Overcast
11:54 PM 54.9 °F 43.2 °F 65% 29.92 in 10.0 mi WNW 3.5 mph - N/A   Overcast